THORAD AGENA D DEB, 4993

Orbit data source: Space-Track

THORAD AGENA D DEB, 4993 is space debris in SSO originally from a launch on Wed, 08 Apr 1970 UTC launched from the Air Force Western Test Range (AFWTR). Debris objects in space refer to the collection of defunct objects orbiting the Earth. Examples of debris include non-operational satellites, rocket bodies, and fragments generated from explosions, collisions, or faulty payload assembly.

Loading next visibility...
Identifier
4993, 1970-025HP
Orbit
SSO
Country
Flag of USUS
Related business
Manufacturer
Unknown
Mission
Spacecraft
Bus & Motor
Unknown
Mass
Unknown
Launch date (UTC)
1970-04-08 (56 years ago)
Launch vehicle
Unknown
Launch site
Air Force Western Test Range (AFWTR)
Object type
Payload
Rocket body
Debris
Shape & HBR
Unknown shape, 0.1 m
Radar Cross Section
Small (<0.1 m²)

Expand to show TLE details & history
Last TLE update: 1 day ago

TLE from 1 day ago
0 THORAD AGENA D DEB
1  4993U 70025HP  25300.30569144  .00001655  00000-0  11001-2 0  9993
2  4993 100.1819  56.7948 0082559 252.6625 106.5493 14.01391665806102
Epoch: 2025-10-27T07:20Z
TLE epoch observation values (Epoch: 2025-10-27T07:20:11.740Z)
Latitude
-0.00001°
Longitude
-89.16355°
Altitude
909.365 km
Speed
7.388 km/s
True Right ascension
03h 47m 10s
True Declination
0° 00' 00"
Sunlit
Object was in full shadow at epoch
Visualization orbit readout
Latitude
Unknown
Longitude
Unknown
Altitude
Unknown
Speed
Unknown
Apparent Right ascension
Unknown
Apparent Declination
Unknown
Sunlit
N/A
Visualization observer readout
Local Sidereal Time
12:24:02
Azimuth
Unknown
Elevation
Unknown
Doppler factor
Unknown
Orbital elements
Apogee altitude
946.213 km
Perigee altitude
826.265 km
Semi-major axis
7,264.376 km
Eccentricity
0.00826
Inclination
100.1819°
RAAN
56.7948°
Arg. of periapsis
252.6625°
True anomaly
107.45347°
Mean anomaly
106.5493°
Eccentric anomaly
107.00166°
Mean motion
3.50547 °/min
Orbital period
102.7 mins
BSTAR
0.0011001
Loading maneuver chart data...
Computing Atmospheric mass density...

Documentation

Showing up to 5 results
|